TimeCDT,TemperatureF,Dew PointF,Humidity,Sea Level PressureIn,VisibilityMPH,Wind Direction,Wind SpeedMPH,Gust SpeedMPH,PrecipitationIn,Events,Conditions,WindDirDegrees,DateUTC
12:53 AM,81.0,75.0,82,30.04,10.0,SE,6.9,-,N/A,,Partly Cloudy,140,2013-10-05 05:53:00
1:51 AM,78.8,75.2,89,30.02,10.0,ENE,4.6,-,N/A,,Mostly Cloudy,70,2013-10-05 06:51:00
1:53 AM,79.0,75.9,90,30.02,10.0,ENE,4.6,-,N/A,,Mostly Cloudy,70,2013-10-05 06:53:00
2:02 AM,78.8,75.2,89,30.02,10.0,ENE,5.8,-,N/A,,Scattered Clouds,70,2013-10-05 07:02:00
2:53 AM,77.0,75.0,94,30.01,9.0,ENE,3.5,-,N/A,,Clear,70,2013-10-05 07:53:00
3:53 AM,77.0,73.9,90,30.01,7.0,ENE,3.5,-,N/A,,Clear,70,2013-10-05 08:53:00
4:53 AM,75.9,73.9,94,30.01,8.0,East,3.5,-,N/A,,Clear,80,2013-10-05 09:53:00
5:53 AM,75.9,73.9,94,30.03,10.0,ENE,3.5,-,N/A,,Clear,60,2013-10-05 10:53:00
6:53 AM,75.9,73.0,91,30.04,10.0,NE,4.6,-,N/A,,Clear,50,2013-10-05 11:53:00
7:53 AM,78.1,73.9,87,30.05,10.0,ENE,4.6,-,N/A,,Clear,60,2013-10-05 12:53:00
8:53 AM,81.0,73.0,77,30.06,10.0,ENE,4.6,-,N/A,,Clear,70,2013-10-05 13:53:00
9:53 AM,82.9,73.9,74,30.06,10.0,ENE,6.9,-,N/A,,Clear,60,2013-10-05 14:53:00
10:53 AM,84.0,73.9,72,30.06,10.0,SE,11.5,-,N/A,,Clear,130,2013-10-05 15:53:00
11:53 AM,84.9,75.9,74,30.05,10.0,SE,10.4,-,N/A,,Clear,130,2013-10-05 16:53:00
12:33 PM,84.2,75.2,74,30.04,10.0,SE,10.4,-,N/A,,Mostly Cloudy,140,2013-10-05 17:33:00
12:42 PM,84.2,75.2,74,30.04,10.0,SE,10.4,-,N/A,,Mostly Cloudy,140,2013-10-05 17:42:00
12:53 PM,84.9,75.9,74,30.03,10.0,SE,12.7,-,N/A,,Mostly Cloudy,140,2013-10-05 17:53:00
12:56 PM,84.2,75.2,74,30.03,10.0,SE,10.4,-,N/A,,Scattered Clouds,140,2013-10-05 17:56:00
1:53 PM,86.0,75.9,72,29.99,10.0,SSE,10.4,-,N/A,,Clear,150,2013-10-05 18:53:00
2:53 PM,84.9,75.0,72,29.99,10.0,SSE,10.4,-,N/A,,Partly Cloudy,150,2013-10-05 19:53:00
3:53 PM,84.9,73.0,67,29.98,10.0,SSE,10.4,-,N/A,,Clear,150,2013-10-05 20:53:00
4:53 PM,84.0,73.9,72,29.97,10.0,SSE,10.4,18.4,N/A,,Partly Cloudy,150,2013-10-05 21:53:00
5:53 PM,82.0,75.0,79,29.96,10.0,SE,12.7,-,N/A,,Partly Cloudy,140,2013-10-05 22:53:00
6:53 PM,82.0,75.0,79,29.97,10.0,SE,12.7,-,N/A,,Mostly Cloudy,140,2013-10-05 23:53:00
7:53 PM,82.0,73.0,74,29.98,10.0,SE,11.5,-,N/A,,Overcast,140,2013-10-06 00:53:00
8:53 PM,82.0,73.9,76,29.99,10.0,SSE,9.2,-,N/A,,Mostly Cloudy,150,2013-10-06 01:53:00
9:53 PM,81.0,73.0,77,29.99,10.0,SE,10.4,-,N/A,,Clear,140,2013-10-06 02:53:00
10:53 PM,80.1,72.0,76,29.98,10.0,SE,8.1,-,N/A,,Clear,130,2013-10-06 03:53:00
11:53 PM,80.1,72.0,76,29.96,10.0,SE,9.2,-,N/A,,Clear,130,2013-10-06 04:53:00